Waarnemingen

Advertentie
Mijn weer
Koksijde, België (6400): temperatuur & dauwpunt: 06.08.2020 17:00:00 - 12.08.2020 17:00:00 (CEST)Koksijde, België (6400): windsnelheid & windstoten: 06.08.2020 17:00:00 - 12.08.2020 17:00:00 (CEST)Koksijde, België (6400): windrichting: 06.08.2020 17:00:00 - 12.08.2020 17:00:00 (CEST)Koksijde, België (6400): luchtdruk: 06.08.2020 17:00:00 - 12.08.2020 17:00:00 (CEST)Koksijde, België (6400): zicht: 06.08.2020 17:00:00 - 12.08.2020 17:00:00 (CEST)
Datum & Tijd tt [°C] td [°C] ff [km/u] ff [kn] fx [km/u] fx [kn] dd ppp [hPa] vv [km]
12.08.2020 17:00:00 - - - - - - - - -
12.08.2020 16:00:00 - - - - - - - - -
12.08.2020 15:00:00 - - - - - - - - -
12.08.2020 14:00:00 - - - - - - - - -
12.08.2020 13:00:00 - - - - - - - - -
12.08.2020 12:00:00 - - - - - - - - -
12.08.2020 11:00:00 - - - - - - - - -
12.08.2020 10:00:00 - - - - - - - - -
12.08.2020 09:00:00 - - - - - - - - -
12.08.2020 08:00:00 - - - - - - - - -
12.08.2020 07:00:00 - - - - - - - - -
12.08.2020 06:00:00 - - - - - - - - -
12.08.2020 05:00:00 - - - - - - - - -
12.08.2020 04:00:00 - - - - - - - - -
12.08.2020 03:00:00 - - - - - - - - -
12.08.2020 02:00:00 - - - - - - - - -
12.08.2020 01:00:00 - - - - - - - - -
12.08.2020 00:00:00 - - - - - - - - -
11.08.2020 23:00:00 - - - - - - - - -
11.08.2020 22:00:00 - - - - - - - - -
11.08.2020 21:00:00 - - - - - - - - -
11.08.2020 20:00:00 - - - - - - - - -
11.08.2020 19:00:00 - - - - - - - - -
11.08.2020 18:00:00 - - - - - - - - -
11.08.2020 17:00:00 - - - - - - - - -
11.08.2020 16:00:00 - - - - - - - - -
11.08.2020 15:00:00 - - - - - - - - -
11.08.2020 14:00:00 - - - - - - - - -
11.08.2020 13:00:00 - - - - - - - - -
11.08.2020 12:00:00 - - - - - - - - -
11.08.2020 11:00:00 - - - - - - - - -
11.08.2020 10:00:00 - - - - - - - - -
11.08.2020 09:00:00 - - - - - - - - -
11.08.2020 08:00:00 - - - - - - - - -
11.08.2020 07:00:00 - - - - - - - - -
11.08.2020 06:00:00 - - - - - - - - -
11.08.2020 05:00:00 - - - - - - - - -
11.08.2020 04:00:00 - - - - - - - - -
11.08.2020 03:00:00 - - - - - - - - -
11.08.2020 02:00:00 - - - - - - - - -
11.08.2020 01:00:00 - - - - - - - - -
11.08.2020 00:00:00 - - - - - - - - -
10.08.2020 23:00:00 - - - - - - - - -
10.08.2020 22:00:00 - - - - - - - - -
10.08.2020 21:00:00 - - - - - - - - -
10.08.2020 20:00:00 - - - - - - - - -
10.08.2020 19:00:00 - - - - - - - - -
10.08.2020 18:00:00 - - - - - - - - -
10.08.2020 17:00:00 - - - - - - - - -
10.08.2020 16:00:00 - - - - - - - - -
10.08.2020 15:00:00 - - - - - - - - -
10.08.2020 14:00:00 - - - - - - - - -
10.08.2020 13:00:00 - - - - - - - - -
10.08.2020 12:00:00 - - - - - - - - -
10.08.2020 11:00:00 - - - - - - - - -
10.08.2020 10:00:00 - - - - - - - - -
10.08.2020 09:00:00 - - - - - - - - -
10.08.2020 08:00:00 - - - - - - - - -
10.08.2020 07:00:00 26,5 19,5 7 4 14 8 NO 1017,5 15
10.08.2020 06:00:00 26,5 19,5 7 4 14 8 NO 1017,5 15
10.08.2020 05:00:00 26,5 19,5 7 4 - - NO 1017,5 15
10.08.2020 04:00:00 26,5 19,5 7 4 14 8 NO 1017,5 15
10.08.2020 03:00:00 26,5 19,5 7 4 14 8 NO 1017,5 15
10.08.2020 02:00:00 26,5 19,5 7 4 - - NO 1017,5 15
10.08.2020 01:00:00 26,5 19,5 7 4 14 8 NO 1017,5 15
10.08.2020 00:00:00 26,5 19,5 7 4 14 8 NO 1017,5 15
09.08.2020 23:00:00 26,5 19,5 7 4 - - NO 1017,5 15
09.08.2020 22:00:00 26,5 19,5 7 4 14 8 NO 1017,5 15
09.08.2020 21:00:00 26,5 19,5 7 4 14 8 NO 1017,5 15
09.08.2020 20:00:00 26,5 19,5 7 4 - - NO 1017,5 15
09.08.2020 19:00:00 26,5 19,5 7 4 14 8 NO 1017,5 17
09.08.2020 18:00:00 26,5 19,5 7 4 14 8 NO 1017,5 17
09.08.2020 17:00:00 26,5 19,5 7 4 - - NO 1017,5 17
09.08.2020 16:00:00 26,5 19,5 7 4 14 8 NO 1017,5 17
09.08.2020 15:00:00 26,5 19,5 7 4 14 8 NO 1017,5 17
09.08.2020 14:00:00 26,5 19,5 7 4 - - NO 1017,5 17
09.08.2020 13:00:00 26,5 19,5 7 4 14 8 NO 1017,5 17
09.08.2020 12:00:00 26,5 19,5 7 4 14 8 NO 1017,5 17
09.08.2020 11:00:00 26,5 19,5 7 4 - - NO 1017,5 17
09.08.2020 10:00:00 26,1 19,5 7 4 14 8 NO 1017,5 17
09.08.2020 09:00:00 24,2 19,2 4 2 7 4 N 1017,7 16
09.08.2020 08:00:00 20,7 19,0 5 3 - - NNO 1017,6 6
09.08.2020 07:00:00 19,5 17,8 4 2 11 6 N 1017,2 6
09.08.2020 06:00:00 19,4 17,3 8 4 7 4 N 1017,2 7
09.08.2020 05:00:00 20,1 17,7 4 2 - - N 1017,2 8
09.08.2020 04:00:00 20,3 17,9 8 4 11 6 N 1017,3 8
09.08.2020 03:00:00 21,1 15,8 7 4 14 8 N 1017,5 18
09.08.2020 02:00:00 22,5 14,6 11 6 - - ONO 1017,7 20
09.08.2020 01:00:00 22,7 14,6 7 4 11 6 ONO 1017,8 20
09.08.2020 00:00:00 23,2 14,2 7 4 18 10 ONO 1018,1 20
08.08.2020 23:00:00 24,3 13,4 11 6 - - ONO 1018,1 20
08.08.2020 22:00:00 24,2 14,4 7 4 11 6 ONO 1018,1 20
08.08.2020 21:00:00 25,6 15,7 7 4 18 10 NNO 1018,0 20
08.08.2020 20:00:00 27,8 13,0 14 8 - - ONO 1017,8 20
08.08.2020 19:00:00 27,8 13,0 18 10 29 16 NO 1018,0 20
08.08.2020 18:00:00 29,2 13,8 22 12 32 18 NO 1018,2 20
08.08.2020 17:00:00 28,7 13,2 18 10 - - NO 1018,5 20
08.08.2020 16:00:00 28,7 12,8 18 10 22 12 NNO 1018,7 20
08.08.2020 15:00:00 30,8 12,4 18 10 22 12 NNO 1018,7 20
08.08.2020 14:00:00 32,3 15,1 14 8 - - N 1018,7 20
08.08.2020 13:00:00 33,0 14,7 11 6 14 8 OZO 1018,7 20
08.08.2020 12:00:00 31,9 17,7 7 4 11 6 O 1018,8 20
08.08.2020 11:00:00 29,7 17,0 4 2 - - N 1019,1 15
08.08.2020 10:00:00 27,2 16,9 4 2 7 4 N 1019,2 12
08.08.2020 09:00:00 23,7 16,8 4 2 11 6 N 1019,1 7
08.08.2020 08:00:00 21,8 16,3 4 2 - - N 1018,2 7
08.08.2020 07:00:00 18,8 15,3 4 2 4 2 N 1018,3 5
08.08.2020 06:00:00 18,7 15,2 4 2 4 2 N 1018,2 6
08.08.2020 05:00:00 18,6 15,1 4 2 - - N 1018,1 7
08.08.2020 04:00:00 19,4 14,9 4 2 4 2 N 1018,1 9
08.08.2020 03:00:00 20,0 15,3 4 2 4 2 N 1018,2 10
08.08.2020 02:00:00 20,7 15,4 4 2 - - N 1018,2 13
08.08.2020 01:00:00 20,7 15,3 7 4 7 4 O 1018,2 16
08.08.2020 00:00:00 21,6 15,5 4 2 11 6 N 1018,2 20
07.08.2020 23:00:00 21,8 15,3 11 6 - - ONO 1018,0 20
07.08.2020 22:00:00 23,8 15,0 7 4 14 8 NO 1017,7 20
07.08.2020 21:00:00 25,2 15,0 11 6 22 12 NO 1017,5 20
07.08.2020 20:00:00 28,0 14,4 14 8 - - NO 1017,6 20
07.08.2020 19:00:00 29,5 12,7 18 10 29 16 NO 1017,6 28
07.08.2020 18:00:00 30,7 13,4 22 12 25 14 NNO 1017,7 28
07.08.2020 17:00:00 31,4 14,9 22 12 - - NNO 1018,1 25
07.08.2020 16:00:00 32,5 15,4 14 8 22 12 N 1018,1 25
07.08.2020 15:00:00 33,1 13,9 7 4 18 10 OZO 1018,3 27
07.08.2020 14:00:00 32,6 13,0 7 4 - - ZZO 1018,6 27
07.08.2020 13:00:00 32,0 13,8 7 4 14 8 ZZO 1018,8 27
07.08.2020 12:00:00 30,6 15,7 7 4 14 8 Z 1019,2 24
07.08.2020 11:00:00 28,7 16,5 7 4 - - Z 1019,2 24
07.08.2020 10:00:00 25,6 15,9 7 4 11 6 ZZO 1019,2 19
07.08.2020 09:00:00 22,4 16,1 4 2 7 4 N 1019,2 12
07.08.2020 08:00:00 18,1 16,4 4 2 - - N 1019,0 6
07.08.2020 07:00:00 15,0 14,4 4 2 4 2 N 1018,7 4,5
07.08.2020 06:00:00 15,1 14,4 4 2 4 2 N 1018,5 5
07.08.2020 05:00:00 15,1 14,5 4 2 - - N 1018,2 2,4
07.08.2020 04:00:00 16,1 15,4 2 1 4 2 - 1018,2 4,0
07.08.2020 03:00:00 16,2 15,2 4 2 4 2 N 1018,2 6
07.08.2020 02:00:00 16,8 15,3 4 2 - - N 1018,5 9
07.08.2020 01:00:00 17,5 15,3 4 2 7 4 N 1018,6 14
07.08.2020 00:00:00 18,3 15,3 7 4 11 6 ONO 1018,6 19
06.08.2020 23:00:00 19,7 15,1 7 4 - - ONO 1018,5 20
06.08.2020 22:00:00 20,3 15,1 11 6 18 10 ONO 1018,3 20
06.08.2020 21:00:00 22,1 15,8 11 6 22 12 NO 1018,1 20
06.08.2020 20:00:00 23,0 16,1 18 10 - - NNO 1018,0 20
06.08.2020 19:00:00 24,8 15,1 18 10 29 16 NO 1017,8 20
06.08.2020 18:00:00 24,5 16,3 18 10 29 16 NNO 1018,0 20
06.08.2020 17:00:00 25,1 16,2 22 12 - - NNO 1018,2 20

tt = temperatuur
td = dauwpunt
ff = windsnelheid
fx = windstoten
dd = windrichting
ppp = luchtdruk
vv = zicht

Weerstations in de omgeving